Wind_Speed
12 15 16 18 21 22 24 25 27 30 31 32 35 38 37 40 40 37 36 37 33 29 29 32 31 30 27 27 23 21 16 15 8 7 9 9 19 20 20 16 11 11 12 12
8 13 14 14 14 16 19 21 24 26 28 27 26 28 29 31 33 34 34 33 33 30 30 36 31 23 24 22 21 21 19 14 10 8 9 11 10 18 21 19 15 13 13 11
9 14 15 16 16 18 16 17 17 19 21 22 24 24 26 28 28 31 33 32 34 34 34 29 22 18 15 19 20 23 19 13 11 9 11 10 13 15 20 20 18 14 13 11
7 13 16 19 17 21 17 22 20 18 20 18 20 21 20 24 26 27 31 31 29 29 27 18 20 14 14 14 21 22 19 15 10 10 11 10 10 18 18 17 19 16 19 20
17 17 19 19 18 21 20 20 21 22 21 25 22 22 21 19 21 24 26 30 31 28 24 19 19 22 21 20 20 23 21 19 12 11 12 12 12 11 18 21 21 19 19 17
18 20 23 24 25 25 26 24 23 24 22 27 21 25 22 17 19 21 21 25 29 26 23 19 21 22 28 27 25 23 23 20 14 10 10 10 11 14 10 20 24 25 24 19
23 24 26 27 29 29 32 33 31 30 26 29 25 30 27 27 25 23 20 20 27 24 23 26 21 16 20 21 23 27 28 22 18 14 14 10 6 10 16 13 23 23 23 22
28 30 30 32 32 32 35 37 38 36 38 32 30 34 32 31 31 25 23 18 22 23 23 28 27 21 18 21 25 26 27 29 23 18 18 11 12 7 8 11 21 20 22 24
30 37 36 37 38 39 41 44 44 42 44 43 36 36 34 36 34 32 26 22 21 27 24 23 26 21 18 20 22 19 25 32 28 23 21 18 13 8 4 4 17 17 19 18
37 42 43 44 45 47 46 48 48 45 44 46 45 37 40 37 35 35 29 23 23 27 29 23 23 25 19 20 23 27 26 25 29 25 21 16 15 13 7 5 8 12 16 18
42 46 55 50 53 54 52 51 52 52 48 47 49 46 41 41 38 35 34 25 21 34 29 30 27 25 21 19 21 32 25 28 28 28 26 18 19 17 15 12 9 5 9 12
47 50 54 62 59 59 60 57 56 55 54 51 51 54 42 42 42 38 37 34 28 23 30 33 31 27 22 19 22 29 30 27 27 32 29 25 22 26 18 17 18 16 8 11
49 51 53 61 68 66 64 64 62 57 54 51 50 55 48 43 45 44 40 41 32 29 27 28 36 33 29 27 24 28 39 33 30 29 29 28 27 24 22 17 14 15 13 15
55 56 57 57 64 69 73 68 63 58 51 49 47 54 52 45 46 47 45 44 42 33 31 26 27 40 36 31 27 28 33 41 41 38 37 31 26 24 22 24 21 15 10 12
60 61 61 61 63 66 67 67 66 58 51 47 52 48 51 47 47 48 47 46 46 43 37 33 25 27 35 27 28 29 28 28 29 23 29 28 32 27 25 24 17 17 12 13
66 67 67 65 68 68 63 61 59 61 53 45 52 46 48 48 47 49 47 47 48 44 44 38 29 24 29 33 31 26 25 23 19 21 18 24 24 27 23 23 19 18 20 17
72 71 69 69 73 69 56 55 59 59 57 47 48 50 50 48 45 49 53 50 51 47 45 40 36 28 31 36 34 34 27 26 27 20 22 20 28 31 26 23 20 21 23 17
74 75 79 79 78 69 57 47 49 53 55 53 49 53 53 53 51 51 55 54 53 51 50 45 39 37 38 30 33 31 27 26 23 24 30 25 29 30 27 26 26 21 28 20
77 79 83 82 77 68 59 51 46 48 53 55 52 55 55 56 56 56 59 59 54 55 52 46 45 46 46 36 31 29 28 30 34 31 28 31 28 32 30 31 27 32 33 28
82 85 86 82 76 65 64 60 54 48 49 57 58 59 59 61 63 61 62 62 57 57 54 51 51 47 42 38 35 35 30 23 32 37 33 21 28 36 37 32 32 28 26 29
89 88 85 81 73 64 56 55 54 46 55 60 60 59 61 62 64 64 65 65 62 59 57 57 56 55 49 39 33 36 34 28 30 37 49 50 41 37 39 38 34 35 34 34
86 85 84 78 68 60 53 49 52 48 53 61 61 60 62 65 67 68 68 68 66 61 59 57 54 52 48 43 37 33 31 30 29 31 37 41 41 42 43 43 41 40 43 44
82 79 75 69 62 59 48 47 46 49 53 59 64 62 63 65 66 70 69 70 67 60 59 57 52 44 41 41 40 35 29 28 24 27 28 29 32 37 39 40 41 46 48 51
75 75 67 57 57 49 45 38 34 42 51 54 62 60 61 63 67 70 70 69 67 62 61 55 51 42 37 38 36 27 24 19 18 13 8 7 9 15 23 30 36 39 41 42
70 65 60 57 46 41 40 32 31 38 42 45 54 56 59 62 66 68 69 69 68 64 58 49 43 41 39 39 34 29 23 19 13 10 5 7 10 10 11 17 20 24 30 32
62 58 58 45 39 34 28 23 23 29 32 34 47 54 58 61 66 67 68 71 69 66 56 46 47 44 40 37 34 28 21 17 10 10 14 9 5 5 3 5 9 11 15 19
Wind_Direction
263 271 278 279 278 280 281 280 281 282 280 275 270 268 267 269 271 270 271 274 270 267 260 273 280 259 263 260 246 243 233 245 233 212 217 225 215 217 208 201 172 183 207 230
290 294 295 299 301 296 291 287 282 281 281 280 275 272 271 268 269 269 267 268 269 268 269 279 272 264 257 238 226 228 225 237 214 194 203 211 195 206 196 207 216 222 208 202
350 305 323 316 313 295 295 292 299 301 294 285 275 275 275 269 267 269 271 268 267 270 275 274 261 263 225 219 225 221 224 225 202 172 196 194 200 193 204 205 214 200 195 191
336 316 309 319 317 306 311 299 296 299 305 302 301 290 278 272 270 264 266 266 266 266 266 263 253 244 223 229 230 223 220 205 200 204 203 212 201 214 227 220 210 202 195 208
331 325 320 318 305 301 299 290 289 284 278 279 294 292 288 288 287 276 261 254 260 259 252 238 246 237 227 240 238 237 228 208 220 221 214 214 212 213 219 219 204 202 207 205
308 303 301 303 301 297 296 296 289 280 276 272 279 272 271 275 280 288 283 258 251 252 250 242 243 240 235 239 231 231 222 193 206 219 211 224 219 214 218 226 226 219 220 219
296 299 298 298 295 297 299 296 290 282 278 274 265 269 268 261 268 277 282 261 250 246 244 237 233 230 226 226 217 221 214 202 208 221 225 241 254 241 226 239 219 224 227 223
296 299 302 297 298 297 293 289 286 284 282 276 265 265 262 264 262 264 270 265 251 239 227 233 235 243 239 233 217 215 218 221 220 223 228 233 260 309 243 225 209 220 227 225
297 299 302 301 300 299 296 292 289 283 280 279 274 264 263 263 262 259 259 265 250 232 232 221 224 226 232 227 216 197 219 220 224 224 231 238 251 274 236 182 209 219 227 221
296 297 303 306 302 299 301 300 296 289 280 275 272 263 258 257 261 258 258 256 247 226 235 222 221 208 219 223 228 214 217 223 221 220 224 230 241 252 246 203 191 226 233 232
299 301 302 304 301 300 300 298 293 289 281 272 266 259 251 253 251 253 251 242 236 228 224 231 217 229 237 230 225 228 229 224 221 220 229 233 232 239 253 223 202 192 228 238
297 299 302 302 300 298 299 296 291 284 278 271 263 260 252 245 246 247 242 240 223 224 236 231 223 226 228 227 228 220 223 219 225 219 222 239 241 244 246 242 244 251 247 225
291 295 298 302 301 301 299 296 291 283 275 268 263 261 251 241 242 240 243 239 231 227 229 228 227 223 228 232 232 228 222 228 226 235 233 238 249 246 241 238 255 234 242 247
294 296 296 298 299 300 296 294 287 280 274 266 260 257 254 243 234 238 237 239 233 226 225 226 225 221 224 225 223 228 233 234 236 237 243 242 236 245 258 247 265 243 266 256
297 298 298 300 300 299 295 289 284 279 269 258 255 251 250 246 232 232 235 239 237 229 226 217 211 221 212 218 223 223 229 232 229 231 231 233 240 246 248 244 258 250 270 264
298 297 299 304 301 301 297 283 274 273 265 253 247 246 246 242 231 225 228 233 236 234 228 223 218 231 227 230 229 226 233 226 235 248 235 231 229 230 234 239 248 244 263 273
300 299 302 306 305 303 296 274 267 262 260 250 243 235 236 236 229 222 223 227 230 230 228 227 223 221 219 230 227 231 227 225 233 229 224 238 238 249 249 251 249 255 264 254
302 305 308 310 308 305 293 277 266 259 252 247 236 233 232 227 221 219 219 220 225 227 226 225 215 211 215 209 233 218 219 221 226 221 238 234 236 241 250 249 258 235 238 216
304 306 309 309 307 302 291 278 266 255 248 243 233 229 228 220 220 216 215 215 220 222 224 220 217 205 207 209 220 218 221 224 228 231 226 229 228 235 243 255 233 225 243 239
306 308 310 308 306 300 290 281 268 253 244 239 232 223 224 216 217 214 214 213 215 218 220 217 216 208 210 209 219 229 236 228 222 217 210 215 227 236 244 238 229 222 231 250
307 309 308 308 305 299 289 275 267 253 233 234 231 224 218 216 213 215 212 210 213 215 216 217 216 218 219 227 224 227 231 235 230 224 225 237 243 241 234 234 227 220 217 223
307 308 308 308 306 300 290 278 268 254 234 229 228 226 217 213 210 214 211 207 210 212 214 217 219 218 223 226 229 227 231 232 232 234 232 229 230 231 230 229 234 234 231 231
307 309 309 310 306 299 293 282 269 253 243 230 224 220 217 210 209 211 211 205 206 209 215 216 217 218 219 219 218 219 225 231 233 235 231 222 228 229 230 231 234 239 241 245
310 309 312 313 305 300 287 271 258 244 242 230 225 218 216 210 208 207 208 204 202 205 210 213 212 211 206 201 202 200 207 205 193 184 174 180 207 233 237 239 242 244 247 249
310 312 314 314 307 298 288 281 254 243 238 228 219 214 211 207 206 205 205 201 199 202 207 205 200 199 193 197 188 190 191 205 192 182 187 214 217 220 233 236 249 254 253 253
311 316 319 316 312 299 289 264 253 245 238 222 212 209 205 204 202 201 201 198 197 199 195 193 191 193 193 194 188 190 186 197 161 126 107 107 110 54 14 291 254 248 253 255
Height
10908 10908 10909 10908 10907 10906 10906 10905 10904 10903 10903 10905 10905 10904 10906 10906 10906 10908 10909 10910 10914 10918 10921 10922 10923 10924 10927 10931 10934 10937 10939 10941 10942 10942 10944 10944 10946 10950 10953 10956 10957 10960 10962 10965
10907 10906 10906 10906 10905 10904 10902 10900 10899 10898 10896 10897 10898 10898 10900 10899 10898 10899 10902 10903 10906 10911 10914 10917 10916 10918 10921 10925 10929 10932 10936 10938 10939 10940 10942 10942 10945 10948 10951 10955 10957 10958 10960 10963
10906 10904 10904 10903 10903 10901 10900 10897 10896 10894 10892 10891 10891 10892 10893 10893 10894 10894 10894 10897 10898 10902 10906 10908 10910 10914 10916 10921 10925 10928 10932 10936 10936 10938 10940 10941 10943 10946 10949 10952 10955 10956 10958 10961
10905 10903 10901 10900 10900 10896 10898 10894 10894 10893 10890 10888 10886 10886 10886 10886 10888 10889 10888 10889 10892 10895 10899 10902 10906 10911 10915 10919 10923 10925 10929 10932 10933 10936 10939 10941 10942 10944 10946 10950 10953 10955 10957 10959
10900 10899 10897 10896 10896 10894 10894 10893 10891 10890 10890 10886 10886 10883 10882 10883 10881 10881 10883 10885 10887 10890 10894 10897 10901 10906 10911 10916 10921 10924 10926 10929 10931 10934 10936 10938 10939 10942 10944 10947 10949 10951 10954 10956
10896 10894 10891 10890 10889 10888 10887 10887 10886 10884 10884 10882 10883 10879 10880 10880 10878 10878 10878 10881 10881 10886 10892 10896 10899 10902 10905 10909 10915 10922 10923 10926 10929 10931 10933 10936 10938 10939 10941 10943 10944 10947 10950 10953
10889 10888 10886 10884 10883 10884 10881 10880 10878 10877 10878 10877 10879 10873 10876 10876 10875 10875 10875 10876 10878 10881 10886 10892 10894 10898 10900 10901 10908 10914 10918 10922 10926 10928 10931 10933 10936 10937 10938 10938 10940 10943 10946 10948
10882 10881 10881 10878 10877 10878 10875 10872 10870 10871 10869 10871 10872 10867 10869 10870 10871 10872 10872 10873 10874 10875 10880 10886 10891 10894 10896 10897 10902 10908 10912 10918 10922 10924 10928 10931 10934 10935 10935 10934 10937 10939 10941 10944
10877 10871 10872 10871 10869 10867 10866 10862 10861 10863 10860 10860 10864 10863 10863 10862 10864 10865 10868 10870 10870 10872 10876 10882 10884 10888 10891 10894 10899 10903 10906 10911 10917 10921 10924 10928 10931 10933 10934 10934 10935 10937 10938 10940
10867 10863 10862 10861 10858 10854 10854 10852 10851 10852 10852 10851 10850 10854 10853 10855 10857 10858 10862 10866 10867 10868 10871 10877 10880 10884 10887 10890 10894 10899 10902 10907 10912 10916 10920 10924 10927 10930 10931 10932 10934 10935 10936 10937
10859 10854 10842 10848 10843 10840 10840 10840 10837 10834 10837 10837 10836 10838 10843 10846 10849 10849 10853 10858 10862 10865 10868 10871 10877 10879 10883 10887 10889 10894 10899 10903 10907 10911 10916 10919 10923 10926 10928 10930 10931 10933 10933 10934
10849 10845 10835 10825 10828 10826 10824 10824 10822 10819 10818 10820 10821 10820 10834 10836 10838 10841 10842 10847 10853 10857 10862 10866 10870 10874 10879 10881 10884 10888 10893 10897 10901 10906 10910 10913 10917 10922 10925 10927 10928 10929 10931 10932
10841 10839 10832 10817 10802 10806 10806 10802 10800 10800 10800 10803 10808 10806 10819 10826 10827 10831 10833 10838 10846 10850 10853 10858 10861 10868 10873 10876 10880 10883 10887 10892 10896 10900 10903 10907 10910 10914 10919 10922 10924 10924 10925 10928
10824 10822 10819 10816 10802 10785 10769 10778 10779 10780 10783 10785 10792 10792 10801 10812 10818 10820 10824 10826 10834 10840 10844 10850 10855 10860 10865 10869 10872 10875 10877 10882 10887 10892 10894 10898 10902 10906 10912 10915 10918 10920 10921 10923
10808 10805 10801 10797 10789 10781 10766 10751 10747 10757 10762 10768 10769 10779 10784 10796 10806 10810 10813 10816 10822 10831 10836 10841 10848 10854 10857 10861 10864 10866 10872 10877 10882 10884 10887 10891 10895 10900 10904 10908 10912 10915 10918 10919
10789 10785 10780 10777 10767 10761 10753 10739 10729 10730 10739 10750 10752 10762 10768 10777 10788 10798 10805 10804 10809 10818 10824 10831 10838 10843 10850 10852 10856 10861 10866 10868 10873 10878 10883 10888 10894 10897 10898 10902 10906 10910 10913 10914
10764 10760 10757 10756 10743 10735 10732 10717 10710 10712 10715 10727 10736 10744 10752 10760 10772 10783 10790 10791 10796 10804 10811 10819 10827 10832 10840 10845 10850 10854 10859 10864 10866 10869 10873 10879 10888 10894 10895 10896 10899 10903 10907 10910
10743 10735 10726 10723 10711 10710 10700 10697 10694 10694 10697 10705 10717 10725 10735 10743 10753 10760 10772 10781 10785 10794 10803 10809 10818 10826 10832 10838 10845 10847 10855 10860 10860 10862 10866 10865 10873 10883 10888 10890 10892 10896 10898 10903
10723 10715 10707 10697 10690 10683 10673 10674 10676 10677 10679 10685 10695 10704 10715 10726 10734 10744 10751 10764 10773 10782 10792 10804 10813 10818 10822 10828 10835 10841 10848 10856 10857 10855 10860 10860 10863 10870 10876 10882 10884 10887 10890 10895
10700 10693 10683 10672 10666 10661 10648 10645 10649 10659 10665 10663 10670 10680 10693 10706 10715 10726 10737 10750 10760 10770 10782 10790 10801 10810 10817 10821 10826 10832 10840 10849 10850 10849 10847 10847 10851 10859 10867 10873 10878 10879 10884 10886
10675 10668 10657 10648 10641 10633 10626 10620 10620 10633 10637 10639 10649 10661 10673 10687 10701 10712 10722 10735 10747 10758 10770 10777 10787 10799 10809 10817 10824 10827 10833 10839 10842 10843 10844 10840 10848 10854 10858 10863 10869 10872 10873 10877
10661 10646 10631 10622 10615 10608 10603 10599 10599 10607 10615 10621 10630 10642 10655 10669 10685 10694 10707 10721 10735 10748 10757 10769 10780 10793 10801 10810 10818 10824 10827 10830 10833 10834 10836 10840 10846 10847 10849 10854 10859 10862 10866 10869
10640 10628 10616 10604 10591 10581 10581 10580 10581 10585 10592 10599 10611 10622 10637 10653 10667 10682 10696 10709 10725 10739 10751 10762 10774 10786 10794 10803 10808 10814 10820 10823 10828 10830 10832 10834 10837 10840 10842 10846 10850 10852 10857 10859
10624 10608 10599 10587 10572 10566 10556 10555 10558 10562 10569 10579 10591 10609 10624 10639 10653 10669 10683 10699 10716 10729 10741 10753 10767 10779 10788 10796 10803 10808 10812 10819 10822 10824 10828 10828 10830 10833 10836 10838 10840 10843 10845 10847
10606 10594 10582 10566 10559 10550 10541 10543 10543 10546 10551 10560 10574 10594 10608 10624 10640 10657 10673 10690 10708 10718 10735 10749 10764 10775 10784 10792 10798 10802 10807 10816 10821 10821 10825 10827 10828 10828 10829 10830 10833 10834 10835 10836
10591 10581 10569 10557 10546 10537 10532 10529 10531 10534 10541 10551 10563 10580 10594 10609 10624 10643 10661 10679 10696 10713 10730 10744 10756 10767 10780 10792 10795 10799 10804 10816 10820 10821 10820 10821 10823 10822 10822 10825 10826 10828 10828 10829